NKS461 KDTW-KLGA

Flight info

Callsign NKS461
Flight time 1h 15m
Altitude 35000
Route PAVYL3 ESSBE SPYDY Q186 WEVEL ETG MIP4
Aircraft A321/M-SDE3FGHIRWY/LB1

Departure

Time 2026-05-04 19:18
Airport Detroit Metropolitan Wayne County Airport (KDTW)

Arrival

Time 2026-05-04 20:33
Airport LaGuardia Airport (KLGA)
Time Latitude Longitude Altitude Speed Heading
2026-05-04 17:56 42.22259 -83.35240 646 ft 0 kts 83°
2026-05-04 19:02 42.22257 -83.35254 675 ft 4 kts 83°
2026-05-04 19:02 42.22255 -83.35285 646 ft 4 kts 85°
2026-05-04 19:03 42.22257 -83.35319 650 ft 4 kts 117°
2026-05-04 19:03 42.22273 -83.35343 649 ft 4 kts 166°
2026-05-04 19:03 42.22296 -83.35339 647 ft 4 kts 219°
2026-05-04 19:03 42.22314 -83.35320 649 ft 1 kts 219°
2026-05-04 19:04 42.22314 -83.35319 649 ft 0 kts 219°
2026-05-04 19:07 42.22309 -83.35325 646 ft 4 kts 219°
2026-05-04 19:08 42.22266 -83.35352 647 ft 8 kts 182°
2026-05-04 19:08 42.22211 -83.35319 646 ft 9 kts 150°
2026-05-04 19:08 42.22153 -83.35272 646 ft 10 kts 148°
2026-05-04 19:08 42.22091 -83.35225 648 ft 10 kts 163°
2026-05-04 19:09 42.22025 -83.35249 647 ft 10 kts 208°
2026-05-04 19:09 42.21964 -83.35294 646 ft 10 kts 208°
2026-05-04 19:09 42.21903 -83.35332 646 ft 10 kts 193°
2026-05-04 19:09 42.21839 -83.35315 646 ft 10 kts 138°
2026-05-04 19:10 42.21825 -83.35222 646 ft 11 kts 88°
2026-05-04 19:10 42.21828 -83.35119 646 ft 11 kts 89°
2026-05-04 19:10 42.21830 -83.35011 646 ft 12 kts 89°
2026-05-04 19:10 42.21832 -83.34897 646 ft 13 kts 89°
2026-05-04 19:11 42.21833 -83.34779 646 ft 13 kts 89°
2026-05-04 19:11 42.21836 -83.34654 647 ft 14 kts 89°
2026-05-04 19:11 42.21843 -83.34530 648 ft 13 kts 68°
2026-05-04 19:11 42.21917 -83.34455 646 ft 14 kts 28°
2026-05-04 19:12 42.22008 -83.34388 647 ft 15 kts 28°
2026-05-04 19:12 42.22208 -83.34241 646 ft 17 kts 29°
2026-05-04 19:12 42.22309 -83.34166 647 ft 17 kts 28°
2026-05-04 19:13 42.22415 -83.34089 646 ft 18 kts 28°
2026-05-04 19:13 42.22524 -83.34009 648 ft 18 kts 28°
2026-05-04 19:13 42.22632 -83.33929 646 ft 16 kts 28°
2026-05-04 19:13 42.22731 -83.33856 646 ft 17 kts 28°
2026-05-04 19:14 42.22829 -83.33784 646 ft 13 kts 29°
2026-05-04 19:14 42.22856 -83.33715 645 ft 5 kts 101°
2026-05-04 19:14 42.22854 -83.33710 645 ft 0 kts 112°
2026-05-04 19:15 42.22854 -83.33708 644 ft 2 kts 112°
2026-05-04 19:15 42.22833 -83.33651 645 ft 9 kts 127°
2026-05-04 19:16 42.22778 -83.33654 646 ft 8 kts 210°
2026-05-04 19:16 42.22767 -83.33661 646 ft 0 kts 208°
2026-05-04 19:17 42.22745 -83.33677 647 ft 23 kts 207°
2026-05-04 19:17 42.22396 -83.33934 647 ft 90 kts 208°
2026-05-04 19:17 42.21680 -83.34466 650 ft 142 kts 210°
2026-05-04 19:17 42.20771 -83.35159 1099 ft 150 kts 210°
2026-05-04 19:18 42.19869 -83.35870 1752 ft 150 kts 209°
2026-05-04 19:18 42.18901 -83.36450 2341 ft 158 kts 196°
2026-05-04 19:18 42.17697 -83.36429 2517 ft 187 kts 178°
2026-05-04 19:18 42.16334 -83.36284 2784 ft 204 kts 181°
2026-05-04 19:19 42.14846 -83.36173 3009 ft 227 kts 181°
2026-05-04 19:19 42.13197 -83.36079 3402 ft 244 kts 181°
2026-05-04 19:19 42.11460 -83.35980 3968 ft 254 kts 182°
2026-05-04 19:19 42.09694 -83.35871 4766 ft 254 kts 182°
2026-05-04 19:20 42.07928 -83.35737 5540 ft 256 kts 182°
2026-05-04 19:20 42.06141 -83.35520 6252 ft 264 kts 173°
2026-05-04 19:20 42.04441 -83.34371 6785 ft 287 kts 145°
2026-05-04 19:20 42.03236 -83.32161 6949 ft 302 kts 115°
2026-05-04 19:21 42.02758 -83.29379 6962 ft 307 kts 103°
2026-05-04 19:21 42.02384 -83.26549 6959 ft 307 kts 103°
2026-05-04 19:21 42.02002 -83.23729 6956 ft 307 kts 104°
2026-05-04 19:21 42.01609 -83.20908 6955 ft 307 kts 103°
2026-05-04 19:22 42.01467 -83.18040 6960 ft 305 kts 88°
2026-05-04 19:22 42.01784 -83.15288 7516 ft 293 kts 80°
2026-05-04 19:22 42.02166 -83.12609 8452 ft 296 kts 80°
2026-05-04 19:22 42.02578 -83.09802 8776 ft 314 kts 75°
2026-05-04 19:23 42.03259 -83.06969 9381 ft 321 kts 71°
2026-05-04 19:23 42.03985 -83.04102 10010 ft 326 kts 71°
2026-05-04 19:23 42.04735 -83.01146 10266 ft 345 kts 71°
2026-05-04 19:23 42.05537 -82.97988 10407 ft 367 kts 71°
2026-05-04 19:24 42.06384 -82.94641 10533 ft 388 kts 71°
2026-05-04 19:24 42.07263 -82.91144 10900 ft 399 kts 71°
2026-05-04 19:24 42.08156 -82.87586 11462 ft 404 kts 71°
2026-05-04 19:24 42.09046 -82.84036 12060 ft 407 kts 71°
2026-05-04 19:25 42.09958 -82.80403 12679 ft 411 kts 71°
2026-05-04 19:25 42.10878 -82.76739 13295 ft 415 kts 71°
2026-05-04 19:25 42.11806 -82.73047 13886 ft 418 kts 71°
2026-05-04 19:25 42.12736 -82.69330 14450 ft 421 kts 71°
2026-05-04 19:26 42.13658 -82.65575 15024 ft 424 kts 73°
2026-05-04 19:26 42.14258 -82.61675 15578 ft 427 kts 84°
2026-05-04 19:26 42.14379 -82.57678 16134 ft 429 kts 91°
2026-05-04 19:26 42.14347 -82.53644 16702 ft 432 kts 91°
2026-05-04 19:27 42.14318 -82.49581 17259 ft 435 kts 91°
2026-05-04 19:27 42.14260 -82.45489 17806 ft 438 kts 95°
2026-05-04 19:27 42.13862 -82.41412 18296 ft 441 kts 101°
2026-05-04 19:27 42.13355 -82.37327 18775 ft 444 kts 101°
2026-05-04 19:28 42.12840 -82.33214 19236 ft 447 kts 101°
2026-05-04 19:28 42.12319 -82.29072 19690 ft 450 kts 101°
2026-05-04 19:28 42.11790 -82.24898 20137 ft 453 kts 101°
2026-05-04 19:28 42.11258 -82.20700 20571 ft 457 kts 100°
2026-05-04 19:29 42.10724 -82.16473 20995 ft 460 kts 100°
2026-05-04 19:29 42.10186 -82.12215 21414 ft 463 kts 100°
2026-05-04 19:29 42.09642 -82.07932 21837 ft 466 kts 100°
2026-05-04 19:29 42.09089 -82.03623 22244 ft 469 kts 100°
2026-05-04 19:30 42.08531 -81.99289 22647 ft 471 kts 100°
2026-05-04 19:30 42.07967 -81.94929 23042 ft 474 kts 100°
2026-05-04 19:30 42.07391 -81.90541 23407 ft 477 kts 102°
2026-05-04 19:30 42.06456 -81.86256 23744 ft 478 kts 113°
2026-05-04 19:31 42.04990 -81.82246 24092 ft 478 kts 123°
2026-05-04 19:31 42.03046 -81.78638 24437 ft 476 kts 134°
2026-05-04 19:31 42.00689 -81.75529 24772 ft 474 kts 144°
2026-05-04 19:31 41.97997 -81.73006 25105 ft 471 kts 154°
2026-05-04 19:32 41.95165 -81.70912 25416 ft 472 kts 155°
2026-05-04 19:32 41.92277 -81.68791 25752 ft 474 kts 155°
2026-05-04 19:32 41.89376 -81.66661 26050 ft 476 kts 155°
2026-05-04 19:32 41.86463 -81.64524 26394 ft 478 kts 155°
2026-05-04 19:33 41.83543 -81.62385 26718 ft 480 kts 154°
2026-05-04 19:33 41.80607 -81.60232 27040 ft 482 kts 154°
2026-05-04 19:33 41.77659 -81.58070 27361 ft 484 kts 154°
2026-05-04 19:33 41.74703 -81.55898 27698 ft 486 kts 154°
2026-05-04 19:34 41.71731 -81.53718 28010 ft 488 kts 154°
2026-05-04 19:34 41.68746 -81.51534 28384 ft 488 kts 154°
2026-05-04 19:34 41.65792 -81.49379 28810 ft 487 kts 154°
2026-05-04 19:34 41.62808 -81.47177 29296 ft 486 kts 151°
2026-05-04 19:35 41.60056 -81.44542 29728 ft 488 kts 141°
2026-05-04 19:35 41.57677 -81.41302 30104 ft 490 kts 130°
2026-05-04 19:35 41.56321 -81.38818 30324 ft 491 kts 123°
2026-05-04 19:35 41.54733 -81.34784 30645 ft 492 kts 112°
2026-05-04 19:36 41.53702 -81.30446 30946 ft 491 kts 101°
2026-05-04 19:36 41.53199 -81.25943 31271 ft 490 kts 95°
2026-05-04 19:36 41.52804 -81.21493 31589 ft 489 kts 95°
2026-05-04 19:36 41.52393 -81.16988 31933 ft 489 kts 95°
2026-05-04 19:37 41.51973 -81.12487 32271 ft 489 kts 96°
2026-05-04 19:37 41.51550 -81.07993 32589 ft 488 kts 95°
2026-05-04 19:37 41.51126 -81.03498 32918 ft 488 kts 95°
2026-05-04 19:37 41.50702 -80.99008 33248 ft 488 kts 95°
2026-05-04 19:38 41.50278 -80.94523 33568 ft 487 kts 95°
2026-05-04 19:38 41.49854 -80.90044 33875 ft 487 kts 95°
2026-05-04 19:38 41.49430 -80.85570 34179 ft 485 kts 95°
2026-05-04 19:38 41.49004 -80.81111 34437 ft 485 kts 95°
2026-05-04 19:39 41.48580 -80.76646 34673 ft 486 kts 95°
2026-05-04 19:39 41.48153 -80.72172 34794 ft 486 kts 95°
2026-05-04 19:39 41.47722 -80.67700 34815 ft 487 kts 96°
2026-05-04 19:40 41.46856 -80.58752 34805 ft 486 kts 96°
2026-05-04 19:40 41.45980 -80.49808 34798 ft 486 kts 96°
2026-05-04 19:41 41.45099 -80.40885 34810 ft 485 kts 96°
2026-05-04 19:41 41.44214 -80.31962 34817 ft 485 kts 96°
2026-05-04 19:42 41.43320 -80.23048 34837 ft 486 kts 96°
2026-05-04 19:42 41.42410 -80.14129 34859 ft 486 kts 96°
2026-05-04 19:43 41.41511 -80.05205 34863 ft 486 kts 95°
2026-05-04 19:43 41.40658 -79.96280 34866 ft 486 kts 95°
2026-05-04 19:44 41.39805 -79.87355 34870 ft 486 kts 95°
2026-05-04 19:44 41.38937 -79.78440 34871 ft 486 kts 95°
2026-05-04 19:45 41.38056 -79.69520 34871 ft 486 kts 95°
2026-05-04 19:45 41.37162 -79.60613 34855 ft 485 kts 96°
2026-05-04 19:46 41.36259 -79.51769 34864 ft 485 kts 96°
2026-05-04 19:46 41.35349 -79.42866 34857 ft 485 kts 96°
2026-05-04 19:47 41.34441 -79.33974 34855 ft 485 kts 95°
2026-05-04 19:47 41.33528 -79.25083 34862 ft 485 kts 96°
2026-05-04 19:48 41.32607 -79.16197 34864 ft 485 kts 96°
2026-05-04 19:48 41.31683 -79.07310 34872 ft 485 kts 96°
2026-05-04 19:49 41.30743 -78.98424 34870 ft 485 kts 96°
2026-05-04 19:49 41.29783 -78.89553 34878 ft 485 kts 96°
2026-05-04 19:50 41.28827 -78.80678 34872 ft 485 kts 96°
2026-05-04 19:50 41.27881 -78.71809 34863 ft 485 kts 96°
2026-05-04 19:51 41.26922 -78.62944 34870 ft 484 kts 95°
2026-05-04 19:51 41.25954 -78.54083 34868 ft 484 kts 96°
2026-05-04 19:52 41.24970 -78.45227 34864 ft 484 kts 96°
2026-05-04 19:52 41.23984 -78.36381 34880 ft 484 kts 96°
2026-05-04 19:53 41.22987 -78.27536 34878 ft 484 kts 96°
2026-05-04 19:53 41.21985 -78.18694 34877 ft 484 kts 96°
2026-05-04 19:54 41.20978 -78.09911 34865 ft 484 kts 96°
2026-05-04 19:54 41.19899 -78.01093 34863 ft 484 kts 97°
2026-05-04 19:55 41.18776 -77.92274 34871 ft 484 kts 97°
2026-05-04 19:55 41.17657 -77.83456 34866 ft 484 kts 97°
2026-05-04 19:56 41.16552 -77.74647 34856 ft 484 kts 97°
2026-05-04 19:56 41.15445 -77.65836 34858 ft 484 kts 97°
2026-05-04 19:57 41.14323 -77.57027 34862 ft 484 kts 97°
2026-05-04 19:57 41.13184 -77.48221 34858 ft 484 kts 97°
2026-05-04 19:58 41.12037 -77.39418 34855 ft 485 kts 97°
2026-05-04 19:58 41.10891 -77.30616 34860 ft 484 kts 97°
2026-05-04 19:59 41.09740 -77.21815 34870 ft 484 kts 97°
2026-05-04 19:59 41.08578 -77.13018 34868 ft 485 kts 97°
2026-05-04 20:00 41.07416 -77.04221 34867 ft 484 kts 96°
2026-05-04 20:00 41.06253 -76.95423 34869 ft 485 kts 97°
2026-05-04 20:01 41.05072 -76.86634 34886 ft 485 kts 97°
2026-05-04 20:01 41.03882 -76.77853 34884 ft 484 kts 97°
2026-05-04 20:02 41.02691 -76.69086 34882 ft 484 kts 97°
2026-05-04 20:02 41.00901 -76.60481 34889 ft 486 kts 105°
2026-05-04 20:03 40.98842 -76.51954 34888 ft 486 kts 105°
2026-05-04 20:03 40.96793 -76.43429 34901 ft 486 kts 105°
2026-05-04 20:04 40.94740 -76.34902 34914 ft 486 kts 105°
2026-05-04 20:04 40.92692 -76.26445 34923 ft 486 kts 105°
2026-05-04 20:05 40.90612 -76.17931 34931 ft 486 kts 105°
2026-05-04 20:05 40.88538 -76.09430 34940 ft 486 kts 105°
2026-05-04 20:06 40.86459 -76.00922 34936 ft 487 kts 105°
2026-05-04 20:06 40.84363 -75.92425 34926 ft 487 kts 105°
2026-05-04 20:07 40.82260 -75.83925 34923 ft 487 kts 105°
2026-05-04 20:07 40.80153 -75.75439 34941 ft 487 kts 105°
2026-05-04 20:08 40.78049 -75.66947 34926 ft 487 kts 105°
2026-05-04 20:08 40.76993 -75.62706 34803 ft 487 kts 105°
2026-05-04 20:08 40.75934 -75.58467 34558 ft 486 kts 105°
2026-05-04 20:08 40.74869 -75.54228 33894 ft 489 kts 105°
2026-05-04 20:09 40.73796 -75.49955 32986 ft 493 kts 105°
2026-05-04 20:09 40.72715 -75.45656 32170 ft 495 kts 105°
2026-05-04 20:09 40.71701 -75.41317 31332 ft 497 kts 104°
2026-05-04 20:09 40.70783 -75.36907 30450 ft 501 kts 102°
2026-05-04 20:10 40.69930 -75.32430 29417 ft 506 kts 102°
2026-05-04 20:10 40.69101 -75.27913 28449 ft 508 kts 102°
2026-05-04 20:10 40.68264 -75.23385 27532 ft 509 kts 102°
2026-05-04 20:10 40.67254 -75.18952 27032 ft 503 kts 111°
2026-05-04 20:11 40.65757 -75.14802 26297 ft 502 kts 120°
2026-05-04 20:11 40.63789 -75.11041 25668 ft 497 kts 130°
2026-05-04 20:11 40.61484 -75.07680 25028 ft 492 kts 134°
2026-05-04 20:11 40.59168 -75.04385 24380 ft 489 kts 131°
2026-05-04 20:12 40.57177 -75.00778 23746 ft 485 kts 121°
2026-05-04 20:12 40.55644 -74.96848 23046 ft 481 kts 111°
2026-05-04 20:12 40.54452 -74.92797 22431 ft 475 kts 110°
2026-05-04 20:12 40.53263 -74.88772 21812 ft 470 kts 111°
2026-05-04 20:13 40.52069 -74.84799 21192 ft 465 kts 111°
2026-05-04 20:13 40.50879 -74.80880 20599 ft 460 kts 111°
2026-05-04 20:13 40.49698 -74.77001 20027 ft 455 kts 111°
2026-05-04 20:13 40.48547 -74.73208 19478 ft 450 kts 112°
2026-05-04 20:14 40.47401 -74.69409 18931 ft 446 kts 112°
2026-05-04 20:14 40.46263 -74.65626 18411 ft 443 kts 112°
2026-05-04 20:14 40.45137 -74.61882 17893 ft 439 kts 112°
2026-05-04 20:14 40.44249 -74.58092 17453 ft 433 kts 101°
2026-05-04 20:15 40.43904 -74.54192 16947 ft 427 kts 90°
2026-05-04 20:15 40.44100 -74.50331 16430 ft 422 kts 79°
2026-05-04 20:15 40.44797 -74.46628 15896 ft 416 kts 69°
2026-05-04 20:15 40.45760 -74.43068 15364 ft 412 kts 68°
2026-05-04 20:16 40.46716 -74.39532 14829 ft 409 kts 68°
2026-05-04 20:16 40.47661 -74.36022 14296 ft 406 kts 69°
2026-05-04 20:16 40.48597 -74.32536 13771 ft 403 kts 69°
2026-05-04 20:16 40.49521 -74.29083 13203 ft 399 kts 69°
2026-05-04 20:17 40.50437 -74.25656 12646 ft 395 kts 69°
2026-05-04 20:17 40.51344 -74.22264 12089 ft 392 kts 69°
2026-05-04 20:17 40.52241 -74.18906 11547 ft 388 kts 69°
2026-05-04 20:17 40.53128 -74.15583 11184 ft 379 kts 69°
2026-05-04 20:18 40.53978 -74.12383 11044 ft 364 kts 69°
2026-05-04 20:18 40.54878 -74.09353 10933 ft 348 kts 61°
2026-05-04 20:18 40.56145 -74.06728 10808 ft 332 kts 48°
2026-05-04 20:18 40.57713 -74.04594 10695 ft 317 kts 36°
2026-05-04 20:19 40.59501 -74.03040 10552 ft 302 kts 21°
2026-05-04 20:19 40.61423 -74.01950 10333 ft 299 kts 17°
2026-05-04 20:19 40.63404 -74.01320 10092 ft 291 kts
2026-05-04 20:19 40.65419 -74.01159 9854 ft 289 kts 358°
2026-05-04 20:20 40.67402 -74.01266 9601 ft 284 kts 349°
2026-05-04 20:20 40.69358 -74.01600 9333 ft 283 kts 348°
2026-05-04 20:20 40.71304 -74.01957 9068 ft 282 kts 347°
2026-05-04 20:20 40.72592 -74.02197 8888 ft 282 kts 347°
2026-05-04 20:21 40.75174 -74.02073 8545 ft 284 kts 12°
2026-05-04 20:21 40.76433 -74.01512 8367 ft 282 kts 17°
2026-05-04 20:21 40.80383 -73.98683 7738 ft 275 kts 27°
2026-05-04 20:22 40.82000 -73.97380 7483 ft 270 kts 27°
2026-05-04 20:22 40.83072 -73.96517 7379 ft 264 kts 27°
2026-05-04 20:22 40.84610 -73.95275 7263 ft 253 kts 27°
2026-05-04 20:22 40.86099 -73.94104 7004 ft 247 kts 24°
2026-05-04 20:23 40.87625 -73.93067 6639 ft 246 kts 22°
2026-05-04 20:23 40.89186 -73.92160 6298 ft 244 kts 18°
2026-05-04 20:23 40.90754 -73.91329 5955 ft 242 kts 18°
2026-05-04 20:23 40.92295 -73.90525 5628 ft 240 kts 17°
2026-05-04 20:24 40.93807 -73.89737 5480 ft 225 kts 17°
2026-05-04 20:24 40.95243 -73.89166 5315 ft 209 kts
2026-05-04 20:24 40.96638 -73.88734 4975 ft 205 kts
2026-05-04 20:24 40.98030 -73.88323 4633 ft 204 kts
2026-05-04 20:25 40.99414 -73.87916 4240 ft 204 kts
2026-05-04 20:25 41.00708 -73.87137 3879 ft 209 kts 39°
2026-05-04 20:25 41.01466 -73.85518 3511 ft 209 kts 72°
2026-05-04 20:25 41.01869 -73.83676 3139 ft 207 kts 81°
2026-05-04 20:26 41.01834 -73.81807 2726 ft 203 kts 103°
2026-05-04 20:26 41.01542 -73.79992 2469 ft 201 kts 107°
2026-05-04 20:26 41.01223 -73.78185 2615 ft 202 kts 107°
2026-05-04 20:26 41.00897 -73.76366 2860 ft 204 kts 107°
2026-05-04 20:27 41.00571 -73.74527 2986 ft 205 kts 108°
2026-05-04 20:27 41.00236 -73.72691 3002 ft 202 kts 112°
2026-05-04 20:27 40.99543 -73.71205 2991 ft 184 kts 148°
2026-05-04 20:27 40.98416 -73.70766 2996 ft 166 kts 199°
2026-05-04 20:28 40.97442 -73.71496 3030 ft 162 kts 218°
2026-05-04 20:28 40.96473 -73.72255 3013 ft 162 kts 213°
2026-05-04 20:28 40.95505 -73.73022 3009 ft 163 kts 215°
2026-05-04 20:28 40.94543 -73.73807 3009 ft 163 kts 216°
2026-05-04 20:29 40.93584 -73.74598 3009 ft 163 kts 215°
2026-05-04 20:29 40.92584 -73.75428 3018 ft 176 kts 216°
2026-05-04 20:29 40.91527 -73.76306 2938 ft 182 kts 216°
2026-05-04 20:29 40.90454 -73.77197 2742 ft 182 kts 215°
2026-05-04 20:30 40.89387 -73.78081 2506 ft 178 kts 215°
2026-05-04 20:30 40.88376 -73.78918 2279 ft 164 kts 216°
2026-05-04 20:30 40.87451 -73.79685 2065 ft 152 kts 215°
2026-05-04 20:30 40.86567 -73.80419 1870 ft 149 kts 216°
2026-05-04 20:31 40.85704 -73.81135 1703 ft 145 kts 217°
2026-05-04 20:31 40.84860 -73.81835 1502 ft 142 kts 217°
2026-05-04 20:31 40.84031 -73.82522 1302 ft 139 kts 216°
2026-05-04 20:31 40.83197 -73.83213 1084 ft 144 kts 212°
2026-05-04 20:32 40.82362 -73.83905 909 ft 141 kts 213°
2026-05-04 20:32 40.81530 -73.84594 721 ft 141 kts 213°
2026-05-04 20:32 40.80696 -73.85284 546 ft 139 kts 212°
2026-05-04 20:32 40.79873 -73.85970 378 ft 138 kts 214°
2026-05-04 20:33 40.79033 -73.86665 204 ft 145 kts 214°
2026-05-04 20:33 40.78210 -73.87341 22 ft 137 kts 214°
2026-05-04 20:33 40.77525 -73.87909 26 ft 96 kts 212°
2026-05-04 20:33 40.77172 -73.88202 24 ft 22 kts 212°
2026-05-04 20:34 40.77080 -73.88234 27 ft 13 kts 155°
2026-05-04 20:34 40.77056 -73.88200 24 ft 0 kts 123°
2026-05-04 20:34 40.77047 -73.88176 25 ft 7 kts 99°
2026-05-04 20:35 40.77088 -73.88123 23 ft 10 kts 32°
2026-05-04 20:35 40.77136 -73.88083 22 ft 0 kts 32°
2026-05-04 20:36 40.77141 -73.88080 22 ft 4 kts 32°
2026-05-04 20:36 40.77194 -73.88036 21 ft 13 kts 31°
2026-05-04 20:36 40.77272 -73.87973 21 ft 0 kts 32°
2026-05-04 20:36 40.77287 -73.87961 21 ft 7 kts 32°
2026-05-04 20:37 40.77361 -73.87899 20 ft 15 kts 32°
2026-05-04 20:37 40.77451 -73.87823 21 ft 15 kts 32°
2026-05-04 20:37 40.77518 -73.87769 21 ft 6 kts 31°
2026-05-04 20:37 40.77539 -73.87784 22 ft 4 kts 302°
2026-05-04 20:38 40.77550 -73.87859 24 ft 11 kts 277°
2026-05-04 20:38 40.77560 -73.87960 22 ft 10 kts 277°
2026-05-04 20:38 40.77543 -73.88044 22 ft 11 kts 226°
2026-05-04 20:38 40.77475 -73.88102 20 ft 12 kts 211°
2026-05-04 20:39 40.77398 -73.88165 20 ft 13 kts 212°
2026-05-04 20:39 40.77335 -73.88218 20 ft 6 kts 213°
2026-05-04 20:39 40.77299 -73.88250 21 ft 7 kts 214°
2026-05-04 20:39 40.77281 -73.88278 21 ft 3 kts 251°
2026-05-04 20:40 40.77297 -73.88306 19 ft 6 kts 326°
2026-05-04 20:40 40.77327 -73.88330 19 ft 4 kts 330°
2026-05-04 20:40 40.77342 -73.88341 19 ft 1 kts 331°
2026-05-04 20:40 40.77344 -73.88343 19 ft 0 kts 331°